Regional Weather Roundup
Issued by NWS Charleston, SC

Current Version | Previous Version | Graphics & Text | Print | Product List | Glossary On
Versions: 1 2 3 4 5 6 7 8 9 10 11 12 13 14 15 16 17 18 19 20 21 22 23 24 25 26 27 28 29 30 31 32 33 34 35 36 37 38 39 40 41 42 43 44 45 46 47 48 49 50
000 ASUS42 KCHS 042212 RWRCHS REGIONAL WEATHER ROUNDUP NATIONAL WEATHER SERVICE CHARLESTON SC 500 PM EST WED MAR 04 2015 NOTE: "FAIR" INDICATES FEW OR NO CLOUDS BELOW 12,000 FEET WITH NO SIGNIFICANT WEATHER AND/OR OBSTRUCTIONS TO VISIBILITY. NOT ALL STATIONS ARE QUALITY CONTROLLED BY THE NATIONAL WEATHER SERVICE. USE DATA WITH CAUTION...ESPECIALLY DEWPOINT OBSERVATIONS. SCZ027-030-031-034>040-042>050-042300- ...SOUTHEAST SOUTH CAROLINA... CITY SKY/WX TMP DP RH WIND PRES REMARKS N CHARLESTON NOT AVBL WATERFRONT PRK NOT AVBL MOUNT PLEASANT NOT AVBL PINOPOLIS NOT AVBL MONCKS CORNER NOT AVBL SUMMERVILLE NOT AVBL BEAUFORT MCAS MOSUNNY 75 64 68 S9G21 29.99F BEAUFORT ARPT NOT AVBL HILTON HEAD IS NOT AVBL WALTERBORO NOT AVBL ALLENDALE NOT AVBL ...SOUTHERN MIDLANDS AND PEE DEE... CITY SKY/WX TMP DP RH WIND PRES REMARKS GEORGETOWN NOT AVBL KINGSTREE NOT AVBL ORANGEBURG NOT AVBL BARNWELL NOT AVBL AIKEN NOT AVBL MANNING NOT AVBL COLUMBIA NOT AVBL SUMTER NOT AVBL FLORENCE NOT AVBL MYRTLE BEACH NOT AVBL N MYRTLE BEACH NOT AVBL $$ GAZ063-065-086>088-099>101-113>116-118-119-134>141-150-042300- ...SOUTHEAST GEORGIA... CITY SKY/WX TMP DP RH WIND PRES REMARKS SAVANNAH ARPT NOT AVBL HUNTER AAF NOT AVBL FORT STEWART NOT AVBL STATESBORO NOT AVBL SYLVANIA NOT AVBL CLAXTON NOT AVBL ...CSRA...CENTRAL AND FAR SOUTHEAST GEORGIA... CITY SKY/WX TMP DP RH WIND PRES REMARKS THOMSON NOT AVBL AUGUSTA-BUSH NOT AVBL AUGUSTA-DANIEL NOT AVBL SWAINSBORO NOT AVBL VIDALIA NOT AVBL EASTMAN NOT AVBL HAZLEHURST NOT AVBL ALMA NOT AVBL WAYCROSS NOT AVBL JESUP NOT AVBL BAXLEY NOT AVBL BRUNSWICK NOT AVBL SAINT SIMONS NOT AVBL $$ SCZ027-028-034-036>038-045-046-048>050-GAZ119-141-042300- ...LAKE AND SUPPLEMENTAL COASTAL OBSERVATIONS... STATION/POSITION TIME TEMP WIND PRES WAVE SWELL AIR SEA DIR/SP/G HT/PER HT/PER/DIR (UTC) (F) (DEG/KT/KT) (MB) (FT/S) (FT/S/D) UPR LAKE MARION NOT AVBL WINYAH BAY 2045 72 210/ 17 1014.0 LAKE MURRAY 2100 71 240/ 13/ 17 1013.5F ACE BASIN NERRS NOT AVBL FORT PULASKI 2100 69 51 190/ 10/ 18 1017.0F SAPELO ISLAND 2100 73 160/ 13 1017.0S $$ ANZ835-935-AMZ111-154-330-350-352-354-370-450-454-472-042300- ...C-MAN AND BUOY OBSERVATIONS... STATION/POSITION TIME TEMP WIND PRES WAVE SWELL AIR SEA DIR/SP/G HT/PER HT/PER/DIR (UTC) (F) (DEG/KT/KT) (MB) (FT/S) (FT/S/D) BUOY 41004 2050 69 69 200/ 17/ 21 1016.6 5/ 6 2/ 8 BUOY 41008 2050 60 54 170/ 14/ 14 1017.2 3/ 8 2/100/ 8 FOLLY BEACH CMAN 2100 57 200/ 13/ 14 1016.8F CAPERS NEARSHORE 2100 56 200/ 14/ 16 N/A FRIPP NEARSHORE 2100 58 190/ 16/ 17 1016.4F STATION/POSITION TIME TEMP WIND PRES WAVE SWELL AIR SEA DIR/SP/G HT/PER HT/PER/DIR (UTC) (F) (DEG/KT/KT) (MB) (FT/S) (FT/S/D) 5E ST. MARYS GA NOT AVBL FRYING PAN BUOY 2050 67 62 220/ 16/ 19 1017.2 6/ 6 3/120/ 8 BUOY 41025 NOT AVBL CAPE LOOKOUT NC 2100 64 210/ 16/ 22 1015.4F BUOY 41002 2050 73 73 220/ 17/ 21 1021.3 6/10 3/120/10 BUOY 41010 NOT AVBL ST AUGUSTINE FL 2100 63 170/ 13/ 14 1018.2F $$

USA.gov is the U.S. government's official web portal to all federal, state and local government web resources and services.